User: anonymous
Location: Unspecified
(0.0000°N, 0.0000°E)
Time: 00:06:27
(UTC+02:00)
Language:

ARIANE 5 R/B - Orbit

View from above orbital plane
View from above orbital plane
View from above satellite
View from above satellite

Ground track
Ground track

The orbit data is extracted from the following two-line orbital elements,

1 28787U 05028B   14109.43687087 -.00000059  00000-0  87191-3 0  4613
2 28787 006.8721 119.0194 7155757 051.0270 014.8463 02.26530453 71931
Epoch (UTC): 19 April 2014 10:29:05
Eccentricity: 0.7155757
inclination: 6.8721°
perigee height: 587 km
apogee height: 35635 km
right ascension of ascending node: 119.0194°
argument of perigee: 51.0270°
revolutions per day: 2.26530453
mean anomaly at epoch: 14.8463°
orbit number at epoch: 7193

The dashed part of the orbit path shows where the satellite is in the earth's shadow,  

DLR